Location: Newark
(42.7133°N, 87.7910°W)
Time: 07:50:46
(UTC+00:00)

Tiros 1 - Pass Details

Date: 28 October 2019
Orbit: 630 x 664 km, 48.4° (Epoch: 19 November)

Event Time Altitude Azimuth Distance (km) Brightness Sun altitude
Exits shadow 11:43:03 - 269° (W) 2,206 9.2 -7.4°
Reaches altitude 10° 11:43:34 10° 264° (W) 2,079 9.1 -7.3°
Maximum altitude 11:46:23 16° 228° (SW) 1,730 9.0 -6.8°
Drops below altitude 10° 11:49:12 10° 191° (SSW) 2,072 9.8 -6.3°
Sets 11:52:23 0° 170° (S) 2,977 10.9 -5.7°
